Darstellungsparameter: Aktuell verwendete Einstellungen:
Skalierung der Graphiken ... ?
xyx+y,   Skalierungsfaktor:      Skalierung: Modus: x, Faktor: 1
Darstellungszeitraum ... ?
Vom - - bis: - -   Zeitraum: 16.05.2022 - 17.05.2022
Min/Max/Avg-Anzeige ... ?
Zeige MMA aktuell
Zeige MMA Monat
Zeige MMA alles
Zeige --A aktuell
Zeige --A Monat
Zeige --A alles
Keine MMA-Anzeige
MMA:
Average (ber die Originaldaten)
MMA-Basis: 16.05.2022 - 17.05.2022
Quicknavigation für Darstellung... ?
Tage:      1T, 2T, 3T, 5T -1T -2T -3T -5T +1T +2T +3T +5T
Wochen: 1W, 2W, 3W -1W -2W -3W +1W +2W +3W
Monate: 1M, 3M, 6M -1M -3M -6M +1M +3M +6M
Jahre:    1J, 3J, 5J, 10J -1J -3J -5J -10J +1J +3J +5J +10J
Nutze für die Darstellung ... ?
Originaldaten oder Mittelwerte auf ...
Stundenbasis Tagesbasis Wochenbasis
Monatsbasis Jahresbasis      Datenbasis: Original-Daten
Darstellen als:
Statistik (Auto) Statistik J:M      Darstellung:
Zur Graphik,    zurück zur Übersicht aller Sensoren.
 
Tabellarische Datenbersicht: ?
 
Sensor: Nr:Datum:Temp:Abs-Feuchte:Windchill:Wind:
Aussen-T/F 1 16-05-2022 00:00:00 14.6 C 9.76 g/m*3 14.6 C 0 km/h
2 16-05-2022 00:05:00 14.5 C 9.7 g/m*3 14.5 C 0 km/h
3 16-05-2022 00:10:00 14.4 C 9.64 g/m*3 14.4 C 0 km/h
4 16-05-2022 00:15:00 14.4 C 9.64 g/m*3 14.4 C 0 km/h
5 16-05-2022 00:20:00 14.3 C 9.71 g/m*3 14.3 C 0 km/h
6 16-05-2022 00:25:00 14.2 C 9.65 g/m*3 14.2 C 0 km/h
7 16-05-2022 00:30:00 14.2 C 9.77 g/m*3 14.2 C 0 km/h
8 16-05-2022 00:35:00 14.1 C 9.71 g/m*3 14.1 C 0 km/h
9 16-05-2022 00:40:00 14 C 9.65 g/m*3 14 C 0 km/h
10 16-05-2022 00:45:00 13.9 C 9.59 g/m*3 13.9 C 0 km/h
11 16-05-2022 00:50:00 13.8 C 9.65 g/m*3 13.8 C 0 km/h
12 16-05-2022 00:55:00 13.7 C 9.59 g/m*3 13.7 C 0 km/h
13 16-05-2022 01:00:00 13.6 C 9.53 g/m*3 13.6 C 0 km/h
14 16-05-2022 01:05:00 13.5 C 9.47 g/m*3 13.5 C 0 km/h
15 16-05-2022 01:10:00 13.4 C 9.53 g/m*3 13.4 C 0 km/h
16 16-05-2022 01:15:00 13.3 C 9.47 g/m*3 13.3 C 0 km/h
17 16-05-2022 01:20:00 13.3 C 9.47 g/m*3 13.3 C 0 km/h
18 16-05-2022 01:25:00 13.2 C 9.53 g/m*3 13.2 C 0 km/h
19 16-05-2022 01:30:00 13.1 C 9.47 g/m*3 13.1 C 0 km/h
20 16-05-2022 01:35:00 13.1 C 9.47 g/m*3 13.1 C 0 km/h
21 16-05-2022 01:40:00 12.9 C 9.35 g/m*3 12.9 C 0 km/h
22 16-05-2022 01:45:00 12.9 C 9.35 g/m*3 12.9 C 0 km/h
23 16-05-2022 01:50:00 12.8 C 9.3 g/m*3 12.8 C 0 km/h
24 16-05-2022 01:55:00 12.8 C 9.3 g/m*3 12.8 C 0 km/h
25 16-05-2022 02:00:00 12.7 C 9.35 g/m*3 12.7 C 0 km/h
Sensor: Nr:Datum:Temp:Abs-Feuchte:Windchill:Wind:
Aussen-T/F 26 16-05-2022 02:05:00 12.7 C 9.35 g/m*3 12.7 C 0 km/h
27 16-05-2022 02:10:00 12.6 C 9.29 g/m*3 12.6 C 0 km/h
28 16-05-2022 02:15:00 12.6 C 9.29 g/m*3 12.6 C 0 km/h
29 16-05-2022 02:20:00 12.5 C 9.24 g/m*3 12.5 C 0 km/h
30 16-05-2022 02:25:00 12.4 C 9.29 g/m*3 12.4 C 0 km/h
31 16-05-2022 02:30:00 12.4 C 9.29 g/m*3 12.4 C 0 km/h
32 16-05-2022 02:35:00 12.3 C 9.23 g/m*3 12.3 C 0 km/h
33 16-05-2022 02:40:00 12.3 C 9.23 g/m*3 12.3 C 0 km/h
34 16-05-2022 02:45:00 12.2 C 9.17 g/m*3 12.2 C 0 km/h
35 16-05-2022 02:50:00 12.2 C 9.28 g/m*3 12.2 C 0 km/h
36 16-05-2022 02:55:00 12.1 C 9.22 g/m*3 12.1 C 0 km/h
37 16-05-2022 03:00:00 12 C 9.17 g/m*3 12 C 0 km/h
38 16-05-2022 03:05:00 11.9 C 9.11 g/m*3 11.9 C 0 km/h
39 16-05-2022 03:10:00 11.9 C 9.11 g/m*3 11.9 C 0 km/h
40 16-05-2022 03:15:00 11.8 C 9.16 g/m*3 11.8 C 0 km/h
41 16-05-2022 03:20:00 11.8 C 9.16 g/m*3 11.8 C 0 km/h
42 16-05-2022 03:25:00 11.8 C 9.16 g/m*3 11.8 C 0 km/h
43 16-05-2022 03:30:00 11.8 C 9.26 g/m*3 11.8 C 0 km/h
44 16-05-2022 03:35:00 11.8 C 9.26 g/m*3 11.8 C 0 km/h
45 16-05-2022 03:40:00 11.8 C 9.26 g/m*3 11.8 C 0 km/h
46 16-05-2022 03:45:00 11.8 C 9.37 g/m*3 11.8 C 0 km/h
47 16-05-2022 03:50:00 11.8 C 9.37 g/m*3 11.8 C 0 km/h
48 16-05-2022 03:55:00 11.8 C 9.37 g/m*3 11.8 C 1.6 km/h
49 16-05-2022 04:00:00 11.8 C 9.37 g/m*3 11.8 C 1.6 km/h
50 16-05-2022 04:05:00 11.8 C 9.37 g/m*3 11.8 C 0 km/h
Sensor: Nr:Datum:Temp:Abs-Feuchte:Windchill:Wind:
Aussen-T/F 51 16-05-2022 04:10:00 11.8 C 9.37 g/m*3 11.8 C 0 km/h
52 16-05-2022 04:15:00 11.8 C 9.37 g/m*3 11.8 C 0 km/h
53 16-05-2022 04:20:00 11.8 C 9.37 g/m*3 11.8 C 0 km/h
54 16-05-2022 04:25:00 11.8 C 9.37 g/m*3 11.8 C 0 km/h
55 16-05-2022 04:30:00 11.8 C 9.37 g/m*3 11.8 C 0 km/h
56 16-05-2022 04:35:00 11.8 C 9.37 g/m*3 11.8 C 0 km/h
57 16-05-2022 04:40:00 11.8 C 9.37 g/m*3 11.8 C 0 km/h
58 16-05-2022 04:45:00 11.8 C 9.37 g/m*3 11.8 C 0 km/h
59 16-05-2022 04:50:00 11.8 C 9.47 g/m*3 11.8 C 0 km/h
60 16-05-2022 04:55:00 11.9 C 9.53 g/m*3 11.9 C 0 km/h
61 16-05-2022 05:00:00 11.9 C 9.53 g/m*3 11.9 C 0 km/h
62 16-05-2022 05:05:00 11.9 C 9.53 g/m*3 11.9 C 0 km/h
63 16-05-2022 05:10:00 11.9 C 9.53 g/m*3 11.9 C 0 km/h
64 16-05-2022 05:15:00 11.9 C 9.53 g/m*3 11.9 C 0 km/h
65 16-05-2022 05:20:00 11.9 C 9.53 g/m*3 11.9 C 0 km/h
66 16-05-2022 05:25:00 12 C 9.59 g/m*3 12 C 0 km/h
67 16-05-2022 05:30:00 12.1 C 9.65 g/m*3 12.1 C 0 km/h
68 16-05-2022 05:35:00 12.1 C 9.65 g/m*3 12.1 C 0 km/h
69 16-05-2022 05:40:00 12.1 C 9.65 g/m*3 12.1 C 0 km/h
70 16-05-2022 05:45:00 12.1 C 9.65 g/m*3 12.1 C 0 km/h
71 16-05-2022 05:50:00 12.2 C 9.71 g/m*3 12.2 C 0 km/h
72 16-05-2022 05:55:00 12.2 C 9.71 g/m*3 12.2 C 0 km/h
73 16-05-2022 06:00:00 12.2 C 9.71 g/m*3 12.2 C 0 km/h
74 16-05-2022 06:05:00 12.3 C 9.77 g/m*3 12.3 C 3.2 km/h
75 16-05-2022 06:10:00 12.4 C 9.94 g/m*3 12.4 C 1.6 km/h
Sensor: Nr:Datum:Temp:Abs-Feuchte:Windchill:Wind:
Aussen-T/F 76 16-05-2022 06:15:00 12.4 C 9.94 g/m*3 12.4 C 1.6 km/h
77 16-05-2022 06:20:00 12.6 C 10.07 g/m*3 12.6 C 0 km/h
78 16-05-2022 06:25:00 12.6 C 10.07 g/m*3 12.6 C 1.6 km/h
79 16-05-2022 06:30:00 12.8 C 10.19 g/m*3 12.8 C 1.6 km/h
80 16-05-2022 06:35:00 12.9 C 10.26 g/m*3 12.9 C 0 km/h
81 16-05-2022 06:40:00 13 C 10.32 g/m*3 13 C 0 km/h
82 16-05-2022 06:45:00 13.1 C 10.38 g/m*3 13.1 C 0 km/h
83 16-05-2022 06:50:00 13.2 C 10.45 g/m*3 13.2 C 0 km/h
84 16-05-2022 06:55:00 13.3 C 10.51 g/m*3 13.3 C 3.2 km/h
85 16-05-2022 07:00:00 13.4 C 10.58 g/m*3 13.4 C 3.2 km/h
86 16-05-2022 07:05:00 13.5 C 10.64 g/m*3 13.5 C 0 km/h
87 16-05-2022 07:10:00 13.6 C 10.59 g/m*3 13.6 C 0 km/h
88 16-05-2022 07:15:00 13.7 C 10.78 g/m*3 13.7 C 0 km/h
89 16-05-2022 07:20:00 13.8 C 10.84 g/m*3 13.8 C 0 km/h
90 16-05-2022 07:25:00 13.8 C 10.72 g/m*3 13.8 C 0 km/h
91 16-05-2022 07:30:00 13.9 C 10.91 g/m*3 13.9 C 0 km/h
92 16-05-2022 07:35:00 14.1 C 11.04 g/m*3 14.1 C 0 km/h
93 16-05-2022 07:40:00 14.2 C 11.11 g/m*3 14.2 C 0 km/h
94 16-05-2022 07:45:00 14.2 C 10.87 g/m*3 14.2 C 0 km/h
95 16-05-2022 07:50:00 14.3 C 10.93 g/m*3 14.3 C 0 km/h
96 16-05-2022 07:55:00 14.4 C 11 g/m*3 14.4 C 1.6 km/h
97 16-05-2022 08:00:00 14.6 C 11.01 g/m*3 14.6 C 1.6 km/h
98 16-05-2022 08:05:00 14.7 C 10.95 g/m*3 14.7 C 1.6 km/h
99 16-05-2022 08:10:00 14.8 C 11.02 g/m*3 14.8 C 1.6 km/h
100 16-05-2022 08:15:00 14.9 C 11.09 g/m*3 14.9 C 1.6 km/h
Sensor: Nr:Datum:Temp:Abs-Feuchte:Windchill:Wind:
Aussen-T/F 101 16-05-2022 08:20:00 15.1 C 11.22 g/m*3 15.1 C 1.6 km/h
102 16-05-2022 08:25:00 15.2 C 11.29 g/m*3 15.2 C 0 km/h
103 16-05-2022 08:30:00 15.4 C 11.43 g/m*3 15.4 C 0 km/h
104 16-05-2022 08:35:00 15.5 C 11.37 g/m*3 15.5 C 0 km/h
105 16-05-2022 08:40:00 15.6 C 11.3 g/m*3 15.6 C 0 km/h
106 16-05-2022 08:45:00 15.8 C 11.31 g/m*3 15.8 C 0 km/h
107 16-05-2022 08:50:00 16 C 11.44 g/m*3 16 C 3.2 km/h
108 16-05-2022 08:55:00 16.2 C 11.45 g/m*3 16.2 C 0 km/h
109 16-05-2022 09:00:00 16.4 C 11.45 g/m*3 16.4 C 0 km/h
110 16-05-2022 09:05:00 16.6 C 11.44 g/m*3 16.6 C 0 km/h
111 16-05-2022 09:10:00 16.7 C 11.51 g/m*3 16.7 C 6.4 km/h
112 16-05-2022 09:15:00 16.8 C 11.44 g/m*3 16.8 C 6.4 km/h
113 16-05-2022 09:20:00 16.8 C 11.58 g/m*3 16.8 C 3.2 km/h
114 16-05-2022 09:25:00 16.9 C 11.51 g/m*3 16.9 C 3.2 km/h
115 16-05-2022 09:30:00 17 C 11.72 g/m*3 17 C 1.6 km/h
116 16-05-2022 09:35:00 17.1 C 11.94 g/m*3 17.1 C 0 km/h
117 16-05-2022 09:40:00 17.2 C 12.01 g/m*3 17.2 C 0 km/h
118 16-05-2022 09:45:00 17.3 C 11.93 g/m*3 17.3 C 4.8 km/h
119 16-05-2022 09:50:00 17.4 C 11.71 g/m*3 17.4 C 3.2 km/h
120 16-05-2022 09:55:00 17.6 C 11.85 g/m*3 17.6 C 1.6 km/h
121 16-05-2022 10:00:00 17.6 C 12 g/m*3 17.6 C 0 km/h
122 16-05-2022 10:05:00 17.7 C 11.77 g/m*3 17.7 C 3.2 km/h
123 16-05-2022 10:10:00 17.8 C 12.29 g/m*3 17.8 C 1.6 km/h
124 16-05-2022 10:15:00 17.9 C 12.37 g/m*3 17.9 C 0 km/h
125 16-05-2022 10:20:00 18 C 12.44 g/m*3 18 C 0 km/h
Sensor: Nr:Datum:Temp:Abs-Feuchte:Windchill:Wind:
Aussen-T/F 126 16-05-2022 10:25:00 18.2 C 12.43 g/m*3 18.2 C 1.6 km/h
127 16-05-2022 10:30:00 18.4 C 12.58 g/m*3 18.4 C 3.2 km/h
128 16-05-2022 10:35:00 18.9 C 12.8 g/m*3 18.9 C 3.2 km/h
129 16-05-2022 10:40:00 19.9 C 12.71 g/m*3 19.9 C 9.7 km/h
130 16-05-2022 10:45:00 20.8 C 12.67 g/m*3 20.8 C 9.7 km/h
131 16-05-2022 10:50:00 21.7 C 12.78 g/m*3 21.7 C 8.1 km/h
132 16-05-2022 10:55:00 22.3 C 12.64 g/m*3 22.3 C 9.7 km/h
133 16-05-2022 11:00:00 22.8 C 13 g/m*3 22.8 C 11.3 km/h
134 16-05-2022 11:05:00 23.1 C 12.82 g/m*3 23.1 C 11.3 km/h
135 16-05-2022 11:10:00 23.3 C 12.75 g/m*3 23.3 C 9.7 km/h
136 16-05-2022 11:15:00 23.6 C 13.4 g/m*3 23.6 C 4.8 km/h
137 16-05-2022 11:20:00 23.8 C 12.91 g/m*3 23.8 C 8.1 km/h
138 16-05-2022 11:25:00 24.1 C 13.13 g/m*3 24.1 C 11.3 km/h
139 16-05-2022 11:30:00 24.4 C 13.58 g/m*3 24.4 C 11.3 km/h
140 16-05-2022 11:35:00 24.7 C 13.81 g/m*3 24.7 C 8.1 km/h
141 16-05-2022 11:40:00 25 C 13.58 g/m*3 25 C 9.7 km/h
142 16-05-2022 11:45:00 24.8 C 13.2 g/m*3 24.8 C 12.9 km/h
143 16-05-2022 11:50:00 24.6 C 13.28 g/m*3 24.6 C 9.7 km/h
144 16-05-2022 11:55:00 24.4 C 13.35 g/m*3 24.4 C 6.4 km/h
145 16-05-2022 12:00:00 24.2 C 13.64 g/m*3 24.2 C 4.8 km/h
146 16-05-2022 12:05:00 24.1 C 13.78 g/m*3 24.1 C 3.2 km/h
147 16-05-2022 12:10:00 24.1 C 14.22 g/m*3 24.1 C 6.4 km/h
148 16-05-2022 12:15:00 24.3 C 14.16 g/m*3 24.3 C 8.1 km/h
149 16-05-2022 12:20:00 24.7 C 13.81 g/m*3 24.7 C 9.7 km/h
150 16-05-2022 12:25:00 25.1 C 13.66 g/m*3 25.1 C 11.3 km/h
Sensor: Nr:Datum:Temp:Abs-Feuchte:Windchill:Wind:
Aussen-T/F 151 16-05-2022 12:30:00 25.6 C 14.05 g/m*3 25.6 C 9.7 km/h
152 16-05-2022 12:35:00 25.7 C 13.65 g/m*3 25.7 C 9.7 km/h
153 16-05-2022 12:40:00 25.8 C 13.72 g/m*3 25.8 C 11.3 km/h
154 16-05-2022 12:45:00 25.8 C 13.96 g/m*3 25.8 C 16.1 km/h
155 16-05-2022 12:50:00 25.9 C 14.53 g/m*3 25.9 C 8.1 km/h
156 16-05-2022 12:55:00 26.3 C 14.36 g/m*3 26.3 C 14.5 km/h
157 16-05-2022 13:00:00 26.6 C 14.35 g/m*3 26.6 C 14.5 km/h
158 16-05-2022 13:05:00 26.8 C 14.51 g/m*3 26.8 C 12.9 km/h
159 16-05-2022 13:10:00 27.2 C 14.57 g/m*3 27.2 C 9.7 km/h
160 16-05-2022 13:15:00 27.5 C 14.02 g/m*3 27.5 C 16.1 km/h
161 16-05-2022 13:20:00 27.6 C 14.1 g/m*3 27.6 C 14.5 km/h
162 16-05-2022 13:25:00 27.7 C 14.18 g/m*3 27.7 C 17.7 km/h
163 16-05-2022 13:30:00 27.8 C 14.26 g/m*3 27.8 C 17.7 km/h
164 16-05-2022 13:35:00 27.9 C 14.06 g/m*3 27.9 C 20.9 km/h
165 16-05-2022 13:40:00 27.9 C 14.6 g/m*3 27.9 C 20.9 km/h
166 16-05-2022 13:45:00 27.9 C 14.6 g/m*3 27.9 C 20.9 km/h
167 16-05-2022 13:50:00 28 C 14.41 g/m*3 28 C 17.7 km/h
168 16-05-2022 13:55:00 27.7 C 14.18 g/m*3 27.7 C 22.5 km/h
169 16-05-2022 14:00:00 27.6 C 14.37 g/m*3 27.6 C 17.7 km/h
170 16-05-2022 14:05:00 27.6 C 14.9 g/m*3 27.6 C 14.5 km/h
171 16-05-2022 14:10:00 27.8 C 14.52 g/m*3 27.8 C 12.9 km/h
172 16-05-2022 14:15:00 27.8 C 13.99 g/m*3 27.8 C 17.7 km/h
173 16-05-2022 14:20:00 27.7 C 13.64 g/m*3 27.7 C 22.5 km/h
174 16-05-2022 14:25:00 27.7 C 13.91 g/m*3 27.7 C 17.7 km/h
175 16-05-2022 14:30:00 27.6 C 14.1 g/m*3 27.6 C 24.1 km/h
Sensor: Nr:Datum:Temp:Abs-Feuchte:Windchill:Wind:
Aussen-T/F 176 16-05-2022 14:35:00 27.5 C 14.29 g/m*3 27.5 C 20.9 km/h
177 16-05-2022 14:40:00 27.4 C 14.21 g/m*3 27.4 C 22.5 km/h
178 16-05-2022 14:45:00 27.3 C 14.13 g/m*3 27.3 C 27.4 km/h
179 16-05-2022 14:50:00 27.3 C 14.39 g/m*3 27.3 C 17.7 km/h
180 16-05-2022 14:55:00 27.6 C 14.1 g/m*3 27.6 C 19.3 km/h
181 16-05-2022 15:00:00 27.7 C 14.18 g/m*3 27.7 C 27.4 km/h
182 16-05-2022 15:05:00 27.7 C 14.44 g/m*3 27.7 C 17.7 km/h
183 16-05-2022 15:10:00 27.7 C 14.18 g/m*3 27.7 C 17.7 km/h
184 16-05-2022 15:15:00 27.7 C 14.18 g/m*3 27.7 C 12.9 km/h
185 16-05-2022 15:20:00 27.3 C 13.87 g/m*3 27.3 C 22.5 km/h
186 16-05-2022 15:25:00 25.9 C 13.56 g/m*3 25.9 C 14.5 km/h
187 16-05-2022 15:30:00 24.6 C 13.5 g/m*3 24.6 C 16.1 km/h
188 16-05-2022 15:35:00 23.4 C 12.83 g/m*3 23.4 C 16.1 km/h
189 16-05-2022 15:40:00 23 C 12.95 g/m*3 23 C 11.3 km/h
190 16-05-2022 15:45:00 22.7 C 12.73 g/m*3 22.7 C 9.7 km/h
191 16-05-2022 15:50:00 22.3 C 12.64 g/m*3 22.3 C 11.3 km/h
192 16-05-2022 15:55:00 22 C 12.81 g/m*3 22 C 11.3 km/h
193 16-05-2022 16:00:00 21.7 C 13.16 g/m*3 21.7 C 12.9 km/h
194 16-05-2022 16:05:00 21 C 13.37 g/m*3 21 C 11.3 km/h
195 16-05-2022 16:10:00 20.4 C 13.27 g/m*3 20.4 C 8.1 km/h
196 16-05-2022 16:15:00 20.2 C 13.29 g/m*3 20.2 C 6.4 km/h
197 16-05-2022 16:20:00 20 C 13.13 g/m*3 20 C 4.8 km/h
198 16-05-2022 16:25:00 19.8 C 13.15 g/m*3 19.8 C 0 km/h
199 16-05-2022 16:30:00 19.7 C 13.25 g/m*3 19.7 C 3.2 km/h
200 16-05-2022 16:35:00 19.7 C 13.41 g/m*3 19.7 C 1.6 km/h
Sensor: Nr:Datum:Temp:Abs-Feuchte:Windchill:Wind:
Aussen-T/F 201 16-05-2022 16:40:00 19.5 C 13.59 g/m*3 19.5 C 1.6 km/h
202 16-05-2022 16:45:00 19.4 C 13.68 g/m*3 19.4 C 3.2 km/h
203 16-05-2022 16:50:00 19.3 C 13.6 g/m*3 19.3 C 6.4 km/h
204 16-05-2022 16:55:00 19.2 C 13.52 g/m*3 19.2 C 6.4 km/h
205 16-05-2022 17:00:00 19.2 C 13.52 g/m*3 19.2 C 1.6 km/h
206 16-05-2022 17:05:00 19.2 C 13.19 g/m*3 19.2 C 1.6 km/h
207 16-05-2022 17:10:00 19.1 C 12.95 g/m*3 19.1 C 4.8 km/h
208 16-05-2022 17:15:00 19.1 C 12.95 g/m*3 19.1 C 3.2 km/h
209 16-05-2022 17:20:00 19.1 C 12.95 g/m*3 19.1 C 1.6 km/h
210 16-05-2022 17:25:00 19.1 C 13.11 g/m*3 19.1 C 6.4 km/h
211 16-05-2022 17:30:00 19 C 13.04 g/m*3 19 C 3.2 km/h
212 16-05-2022 17:35:00 18.9 C 12.96 g/m*3 18.9 C 4.8 km/h
213 16-05-2022 17:40:00 18.9 C 13.12 g/m*3 18.9 C 3.2 km/h
214 16-05-2022 17:45:00 18.9 C 13.28 g/m*3 18.9 C 4.8 km/h
215 16-05-2022 17:50:00 18.9 C 13.45 g/m*3 18.9 C 1.6 km/h
216 16-05-2022 17:55:00 18.8 C 13.53 g/m*3 18.8 C 8.1 km/h
217 16-05-2022 18:00:00 18.7 C 13.61 g/m*3 18.7 C 4.8 km/h
218 16-05-2022 18:05:00 18.6 C 13.69 g/m*3 18.6 C 0 km/h
219 16-05-2022 18:10:00 18.5 C 13.61 g/m*3 18.5 C 1.6 km/h
220 16-05-2022 18:15:00 18.4 C 13.53 g/m*3 18.4 C 0 km/h
221 16-05-2022 18:20:00 18.4 C 13.68 g/m*3 18.4 C 0 km/h
222 16-05-2022 18:25:00 18.5 C 13.92 g/m*3 18.5 C 0 km/h
223 16-05-2022 18:30:00 18.5 C 13.92 g/m*3 18.5 C 0 km/h
224 16-05-2022 18:35:00 18.6 C 14.17 g/m*3 18.6 C 0 km/h
225 16-05-2022 18:40:00 18.6 C 14.17 g/m*3 18.6 C 1.6 km/h
Sensor: Nr:Datum:Temp:Abs-Feuchte:Windchill:Wind:
Aussen-T/F 226 16-05-2022 18:45:00 18.4 C 14 g/m*3 18.4 C 0 km/h
227 16-05-2022 18:50:00 18.4 C 14 g/m*3 18.4 C 0 km/h
228 16-05-2022 18:55:00 18.4 C 14 g/m*3 18.4 C 0 km/h
229 16-05-2022 19:00:00 18.4 C 14.16 g/m*3 18.4 C 0 km/h
230 16-05-2022 19:05:00 18.3 C 14.07 g/m*3 18.3 C 0 km/h
231 16-05-2022 19:10:00 18.3 C 14.07 g/m*3 18.3 C 0 km/h
232 16-05-2022 19:15:00 18.3 C 14.23 g/m*3 18.3 C 0 km/h
233 16-05-2022 19:20:00 18.4 C 14.47 g/m*3 18.4 C 0 km/h
234 16-05-2022 19:25:00 18.4 C 14.47 g/m*3 18.4 C 0 km/h
235 16-05-2022 19:30:00 18.6 C 14.64 g/m*3 18.6 C 0 km/h
236 16-05-2022 19:35:00 18.7 C 14.73 g/m*3 18.7 C 0 km/h
237 16-05-2022 19:40:00 18.7 C 14.57 g/m*3 18.7 C 3.2 km/h
238 16-05-2022 19:45:00 18.7 C 14.57 g/m*3 18.7 C 3.2 km/h
239 16-05-2022 19:50:00 18.8 C 14.82 g/m*3 18.8 C 1.6 km/h
240 16-05-2022 19:55:00 19 C 14.99 g/m*3 19 C 1.6 km/h
241 16-05-2022 20:00:00 19.1 C 15.08 g/m*3 19.1 C 0 km/h
242 16-05-2022 20:05:00 19.2 C 15.01 g/m*3 19.2 C 0 km/h
243 16-05-2022 20:10:00 19.2 C 15.01 g/m*3 19.2 C 0 km/h
244 16-05-2022 20:15:00 19.2 C 14.84 g/m*3 19.2 C 0 km/h
245 16-05-2022 20:20:00 19.1 C 14.75 g/m*3 19.1 C 0 km/h
246 16-05-2022 20:25:00 19.1 C 14.75 g/m*3 19.1 C 1.6 km/h
247 16-05-2022 20:30:00 19 C 14.67 g/m*3 19 C 0 km/h
248 16-05-2022 20:35:00 18.9 C 14.58 g/m*3 18.9 C 0 km/h
249 16-05-2022 20:40:00 18.8 C 14.49 g/m*3 18.8 C 3.2 km/h
250 16-05-2022 20:45:00 18.7 C 14.41 g/m*3 18.7 C 0 km/h
Sensor: Nr:Datum:Temp:Abs-Feuchte:Windchill:Wind:
Aussen-T/F 251 16-05-2022 20:50:00 18.6 C 14.32 g/m*3 18.6 C 0 km/h
252 16-05-2022 20:55:00 18.3 C 13.92 g/m*3 18.3 C 0 km/h
253 16-05-2022 21:00:00 18.1 C 13.75 g/m*3 18.1 C 0 km/h
254 16-05-2022 21:05:00 17.9 C 13.59 g/m*3 17.9 C 0 km/h
255 16-05-2022 21:10:00 17.7 C 13.43 g/m*3 17.7 C 0 km/h
256 16-05-2022 21:15:00 17.5 C 13.12 g/m*3 17.5 C 0 km/h
257 16-05-2022 21:20:00 17.2 C 13.03 g/m*3 17.2 C 1.6 km/h
258 16-05-2022 21:25:00 17.1 C 12.96 g/m*3 17.1 C 0 km/h
259 16-05-2022 21:30:00 16.8 C 12.72 g/m*3 16.8 C 0 km/h
260 16-05-2022 21:35:00 16.7 C 12.79 g/m*3 16.7 C 1.6 km/h
261 16-05-2022 21:40:00 16.4 C 12.56 g/m*3 16.4 C 1.6 km/h
262 16-05-2022 21:45:00 16.3 C 12.49 g/m*3 16.3 C 0 km/h
263 16-05-2022 21:50:00 16.1 C 12.34 g/m*3 16.1 C 3.2 km/h
264 16-05-2022 21:55:00 16.1 C 12.47 g/m*3 16.1 C 0 km/h
265 16-05-2022 22:00:00 15.9 C 12.32 g/m*3 15.9 C 3.2 km/h
266 16-05-2022 22:05:00 15.8 C 12.25 g/m*3 15.8 C 3.2 km/h
267 16-05-2022 22:10:00 15.8 C 12.38 g/m*3 15.8 C 3.2 km/h
268 16-05-2022 22:15:00 15.7 C 12.31 g/m*3 15.7 C 3.2 km/h
269 16-05-2022 22:20:00 15.6 C 12.23 g/m*3 15.6 C 3.2 km/h
270 16-05-2022 22:25:00 15.5 C 12.16 g/m*3 15.5 C 0 km/h
271 16-05-2022 22:30:00 15.4 C 12.09 g/m*3 15.4 C 0 km/h
272 16-05-2022 22:35:00 15.3 C 12.01 g/m*3 15.3 C 0 km/h
273 16-05-2022 22:40:00 15.2 C 11.94 g/m*3 15.2 C 0 km/h
274 16-05-2022 22:45:00 15.1 C 11.87 g/m*3 15.1 C 0 km/h
275 16-05-2022 22:50:00 15.1 C 11.87 g/m*3 15.1 C 0 km/h
Sensor: Nr:Datum:Temp:Abs-Feuchte:Windchill:Wind:
Aussen-T/F 276 16-05-2022 22:55:00 15 C 11.8 g/m*3 15 C 0 km/h
277 16-05-2022 23:00:00 14.9 C 11.73 g/m*3 14.9 C 0 km/h
278 16-05-2022 23:05:00 14.8 C 11.78 g/m*3 14.8 C 0 km/h
279 16-05-2022 23:10:00 14.8 C 11.78 g/m*3 14.8 C 0 km/h
280 16-05-2022 23:15:00 14.7 C 11.71 g/m*3 14.7 C 0 km/h
281 16-05-2022 23:20:00 14.6 C 11.51 g/m*3 14.6 C 0 km/h
282 16-05-2022 23:25:00 14.4 C 11.5 g/m*3 14.4 C 0 km/h
283 16-05-2022 23:30:00 14.4 C 11.5 g/m*3 14.4 C 0 km/h
284 16-05-2022 23:35:00 14.4 C 11.5 g/m*3 14.4 C 0 km/h
285 16-05-2022 23:40:00 14.3 C 11.43 g/m*3 14.3 C 0 km/h
286 16-05-2022 23:45:00 14.3 C 11.43 g/m*3 14.3 C 0 km/h
287 16-05-2022 23:50:00 14.2 C 11.36 g/m*3 14.2 C 0 km/h
288 16-05-2022 23:55:00 14.2 C 11.36 g/m*3 14.2 C 0 km/h
289 17-05-2022 00:00:00 14.1 C 11.29 g/m*3 14.1 C 0 km/h
290 17-05-2022 00:05:00 14 C 11.22 g/m*3 14 C 0 km/h
291 17-05-2022 00:10:00 13.9 C 11.15 g/m*3 13.9 C 3.2 km/h
292 17-05-2022 00:15:00 13.9 C 11.27 g/m*3 13.9 C 3.2 km/h
293 17-05-2022 00:20:00 14 C 11.34 g/m*3 14 C 1.6 km/h
294 17-05-2022 00:25:00 14.1 C 11.41 g/m*3 14.1 C 0 km/h
295 17-05-2022 00:30:00 14.1 C 11.41 g/m*3 14.1 C 0 km/h
296 17-05-2022 00:35:00 14 C 11.34 g/m*3 14 C 0 km/h
297 17-05-2022 00:40:00 13.9 C 11.27 g/m*3 13.9 C 0 km/h
298 17-05-2022 00:45:00 13.8 C 11.2 g/m*3 13.8 C 0 km/h
299 17-05-2022 00:50:00 13.8 C 11.2 g/m*3 13.8 C 0 km/h
300 17-05-2022 00:55:00 13.7 C 11.13 g/m*3 13.7 C 0 km/h
Sensor: Nr:Datum:Temp:Abs-Feuchte:Windchill:Wind:
Aussen-T/F 301 17-05-2022 01:00:00 13.6 C 11.06 g/m*3 13.6 C 0 km/h
302 17-05-2022 01:05:00 13.6 C 11.06 g/m*3 13.6 C 0 km/h
303 17-05-2022 01:10:00 13.4 C 10.93 g/m*3 13.4 C 0 km/h
304 17-05-2022 01:15:00 13.4 C 10.93 g/m*3 13.4 C 0 km/h
305 17-05-2022 01:20:00 13.3 C 10.86 g/m*3 13.3 C 0 km/h
306 17-05-2022 01:25:00 13.2 C 10.79 g/m*3 13.2 C 0 km/h
307 17-05-2022 01:30:00 13.2 C 10.79 g/m*3 13.2 C 1.6 km/h
308 17-05-2022 01:35:00 13.1 C 10.73 g/m*3 13.1 C 3.2 km/h
309 17-05-2022 01:40:00 13.1 C 10.84 g/m*3 13.1 C 0 km/h
310 17-05-2022 01:45:00 13.2 C 10.91 g/m*3 13.2 C 0 km/h
311 17-05-2022 01:50:00 13.3 C 10.98 g/m*3 13.3 C 3.2 km/h
312 17-05-2022 01:55:00 13.4 C 11.04 g/m*3 13.4 C 3.2 km/h
313 17-05-2022 02:00:00 13.6 C 11.18 g/m*3 13.6 C 0 km/h
314 17-05-2022 02:05:00 13.6 C 11.18 g/m*3 13.6 C 0 km/h
315 17-05-2022 02:10:00 13.5 C 11.11 g/m*3 13.5 C 1.6 km/h
316 17-05-2022 02:15:00 13.4 C 11.04 g/m*3 13.4 C 3.2 km/h
317 17-05-2022 02:20:00 13.5 C 11.11 g/m*3 13.5 C 0 km/h
318 17-05-2022 02:25:00 13.6 C 11.3 g/m*3 13.6 C 3.2 km/h
319 17-05-2022 02:30:00 13.7 C 11.37 g/m*3 13.7 C 0 km/h
320 17-05-2022 02:35:00 13.7 C 11.25 g/m*3 13.7 C 0 km/h
321 17-05-2022 02:40:00 13.7 C 11.25 g/m*3 13.7 C 0 km/h
322 17-05-2022 02:45:00 13.7 C 11.37 g/m*3 13.7 C 0 km/h
323 17-05-2022 02:50:00 13.7 C 11.37 g/m*3 13.7 C 0 km/h
324 17-05-2022 02:55:00 13.8 C 11.44 g/m*3 13.8 C 0 km/h
325 17-05-2022 03:00:00 13.8 C 11.44 g/m*3 13.8 C 0 km/h
Sensor: Nr:Datum:Temp:Abs-Feuchte:Windchill:Wind:
Aussen-T/F 326 17-05-2022 03:05:00 13.8 C 11.44 g/m*3 13.8 C 0 km/h
327 17-05-2022 03:10:00 13.8 C 11.44 g/m*3 13.8 C 0 km/h
328 17-05-2022 03:15:00 13.8 C 11.44 g/m*3 13.8 C 1.6 km/h
329 17-05-2022 03:20:00 13.8 C 11.44 g/m*3 13.8 C 1.6 km/h
330 17-05-2022 03:25:00 13.8 C 11.44 g/m*3 13.8 C 0 km/h
331 17-05-2022 03:30:00 13.8 C 11.44 g/m*3 13.8 C 0 km/h
332 17-05-2022 03:35:00 13.8 C 11.44 g/m*3 13.8 C 3.2 km/h
333 17-05-2022 03:40:00 13.7 C 11.37 g/m*3 13.7 C 1.6 km/h
334 17-05-2022 03:45:00 13.7 C 11.37 g/m*3 13.7 C 0 km/h
335 17-05-2022 03:50:00 13.7 C 11.37 g/m*3 13.7 C 3.2 km/h
336 17-05-2022 03:55:00 13.6 C 11.3 g/m*3 13.6 C 3.2 km/h
337 17-05-2022 04:00:00 13.6 C 11.3 g/m*3 13.6 C 6.4 km/h
338 17-05-2022 04:05:00 13.5 C 11.23 g/m*3 13.5 C 0 km/h
339 17-05-2022 04:10:00 13.5 C 11.11 g/m*3 13.5 C 1.6 km/h
340 17-05-2022 04:15:00 13.4 C 11.16 g/m*3 13.4 C 0 km/h
341 17-05-2022 04:20:00 13.3 C 11.09 g/m*3 13.3 C 0 km/h
342 17-05-2022 04:25:00 13.2 C 10.91 g/m*3 13.2 C 0 km/h
343 17-05-2022 04:30:00 13.2 C 10.91 g/m*3 13.2 C 0 km/h
344 17-05-2022 04:35:00 13.1 C 10.84 g/m*3 13.1 C 0 km/h
345 17-05-2022 04:40:00 13.1 C 10.95 g/m*3 13.1 C 0 km/h
346 17-05-2022 04:45:00 13.1 C 10.95 g/m*3 13.1 C 0 km/h
347 17-05-2022 04:50:00 13.1 C 10.95 g/m*3 13.1 C 0 km/h
348 17-05-2022 04:55:00 13.1 C 10.95 g/m*3 13.1 C 0 km/h
349 17-05-2022 05:00:00 13.1 C 10.95 g/m*3 13.1 C 4.8 km/h
350 17-05-2022 05:05:00 13.1 C 10.95 g/m*3 13.1 C 1.6 km/h
Sensor: Nr:Datum:Temp:Abs-Feuchte:Windchill:Wind:
Aussen-T/F 351 17-05-2022 05:10:00 13.1 C 10.95 g/m*3 13.1 C 3.2 km/h
352 17-05-2022 05:15:00 13 C 10.89 g/m*3 13 C 0 km/h
353 17-05-2022 05:20:00 13 C 10.89 g/m*3 13 C 1.6 km/h
354 17-05-2022 05:25:00 12.9 C 10.82 g/m*3 12.9 C 0 km/h
355 17-05-2022 05:30:00 12.9 C 10.82 g/m*3 12.9 C 0 km/h
356 17-05-2022 05:35:00 12.9 C 10.82 g/m*3 12.9 C 0 km/h
357 17-05-2022 05:40:00 12.8 C 10.75 g/m*3 12.8 C 1.6 km/h
358 17-05-2022 05:45:00 12.8 C 10.75 g/m*3 12.8 C 0 km/h
359 17-05-2022 05:50:00 12.8 C 10.75 g/m*3 12.8 C 0 km/h
360 17-05-2022 05:55:00 12.7 C 10.69 g/m*3 12.7 C 0 km/h
361 17-05-2022 06:00:00 12.7 C 10.69 g/m*3 12.7 C 0 km/h
362 17-05-2022 06:05:00 12.7 C 10.69 g/m*3 12.7 C 0 km/h
363 17-05-2022 06:10:00 12.7 C 10.69 g/m*3 12.7 C 0 km/h
364 17-05-2022 06:15:00 12.8 C 10.75 g/m*3 12.8 C 0 km/h
365 17-05-2022 06:20:00 12.8 C 10.75 g/m*3 12.8 C 0 km/h
366 17-05-2022 06:25:00 12.8 C 10.75 g/m*3 12.8 C 0 km/h
367 17-05-2022 06:30:00 12.8 C 10.75 g/m*3 12.8 C 0 km/h
368 17-05-2022 06:35:00 12.9 C 10.82 g/m*3 12.9 C 0 km/h
369 17-05-2022 06:40:00 12.9 C 10.82 g/m*3 12.9 C 1.6 km/h
370 17-05-2022 06:45:00 12.9 C 10.82 g/m*3 12.9 C 3.2 km/h
371 17-05-2022 06:50:00 12.9 C 10.82 g/m*3 12.9 C 3.2 km/h
372 17-05-2022 06:55:00 12.8 C 10.75 g/m*3 12.8 C 4.8 km/h
373 17-05-2022 07:00:00 12.8 C 10.75 g/m*3 12.8 C 3.2 km/h
374 17-05-2022 07:05:00 12.8 C 10.75 g/m*3 12.8 C 1.6 km/h
375 17-05-2022 07:10:00 12.9 C 10.82 g/m*3 12.9 C 4.8 km/h
Sensor: Nr:Datum:Temp:Abs-Feuchte:Windchill:Wind:
Aussen-T/F 376 17-05-2022 07:15:00 12.9 C 10.82 g/m*3 12.9 C 3.2 km/h
377 17-05-2022 07:20:00 13 C 10.89 g/m*3 13 C 3.2 km/h
378 17-05-2022 07:25:00 13.1 C 10.95 g/m*3 13.1 C 0 km/h
379 17-05-2022 07:30:00 13 C 10.89 g/m*3 13 C 3.2 km/h
380 17-05-2022 07:35:00 13.1 C 10.95 g/m*3 13.1 C 3.2 km/h
381 17-05-2022 07:40:00 13.1 C 10.95 g/m*3 13.1 C 1.6 km/h
382 17-05-2022 07:45:00 13.2 C 11.02 g/m*3 13.2 C 1.6 km/h
383 17-05-2022 07:50:00 13.2 C 11.02 g/m*3 13.2 C 0 km/h
384 17-05-2022 07:55:00 13.2 C 11.02 g/m*3 13.2 C 0 km/h
385 17-05-2022 08:00:00 13.2 C 11.02 g/m*3 13.2 C 0 km/h
386 17-05-2022 08:05:00 13.3 C 11.09 g/m*3 13.3 C 1.6 km/h
387 17-05-2022 08:10:00 13.4 C 11.16 g/m*3 13.4 C 0 km/h
388 17-05-2022 08:15:00 13.5 C 11.23 g/m*3 13.5 C 0 km/h
389 17-05-2022 08:20:00 13.7 C 11.37 g/m*3 13.7 C 0 km/h
390 17-05-2022 08:25:00 13.8 C 11.56 g/m*3 13.8 C 0 km/h
391 17-05-2022 08:30:00 13.8 C 11.44 g/m*3 13.8 C 0 km/h
392 17-05-2022 08:35:00 13.9 C 11.51 g/m*3 13.9 C 1.6 km/h
393 17-05-2022 08:40:00 13.9 C 11.51 g/m*3 13.9 C 1.6 km/h
394 17-05-2022 08:45:00 13.9 C 11.51 g/m*3 13.9 C 0 km/h
395 17-05-2022 08:50:00 13.9 C 11.51 g/m*3 13.9 C 0 km/h
396 17-05-2022 08:55:00 14 C 11.58 g/m*3 14 C 0 km/h
397 17-05-2022 09:00:00 14.1 C 11.65 g/m*3 14.1 C 0 km/h
398 17-05-2022 09:05:00 14.2 C 11.72 g/m*3 14.2 C 0 km/h
399 17-05-2022 09:10:00 14.2 C 11.72 g/m*3 14.2 C 0 km/h
400 17-05-2022 09:15:00 14.3 C 11.79 g/m*3 14.3 C 0 km/h
Sensor: Nr:Datum:Temp:Abs-Feuchte:Windchill:Wind:
Aussen-T/F 401 17-05-2022 09:20:00 14.5 C 11.94 g/m*3 14.5 C 0 km/h
402 17-05-2022 09:25:00 14.7 C 12.09 g/m*3 14.7 C 0 km/h
403 17-05-2022 09:30:00 14.8 C 12.16 g/m*3 14.8 C 0 km/h
404 17-05-2022 09:35:00 15.1 C 12.39 g/m*3 15.1 C 0 km/h
405 17-05-2022 09:40:00 15.3 C 12.54 g/m*3 15.3 C 0 km/h
406 17-05-2022 09:45:00 15.4 C 12.48 g/m*3 15.4 C 0 km/h
407 17-05-2022 09:50:00 15.6 C 12.63 g/m*3 15.6 C 0 km/h
408 17-05-2022 09:55:00 15.8 C 12.79 g/m*3 15.8 C 0 km/h
409 17-05-2022 10:00:00 16.1 C 13.02 g/m*3 16.1 C 0 km/h
410 17-05-2022 10:05:00 16.3 C 13.04 g/m*3 16.3 C 0 km/h
411 17-05-2022 10:10:00 16.4 C 13.12 g/m*3 16.4 C 0 km/h
412 17-05-2022 10:15:00 16.6 C 13.14 g/m*3 16.6 C 0 km/h
413 17-05-2022 10:20:00 16.9 C 13.23 g/m*3 16.9 C 0 km/h
414 17-05-2022 10:25:00 17.2 C 13.47 g/m*3 17.2 C 0 km/h
415 17-05-2022 10:30:00 17.4 C 13.49 g/m*3 17.4 C 0 km/h
416 17-05-2022 10:35:00 17.7 C 13.43 g/m*3 17.7 C 0 km/h
417 17-05-2022 10:40:00 17.9 C 13.44 g/m*3 17.9 C 0 km/h
418 17-05-2022 10:45:00 18.3 C 13.76 g/m*3 18.3 C 0 km/h
419 17-05-2022 10:50:00 18.6 C 14.01 g/m*3 18.6 C 0 km/h
420 17-05-2022 10:55:00 19 C 14.18 g/m*3 19 C 0 km/h
421 17-05-2022 11:00:00 19.3 C 13.93 g/m*3 19.3 C 0 km/h
422 17-05-2022 11:05:00 19.6 C 14.18 g/m*3 19.6 C 0 km/h
423 17-05-2022 11:10:00 19.8 C 14.01 g/m*3 19.8 C 0 km/h
424 17-05-2022 11:15:00 20 C 14 g/m*3 20 C 0 km/h
425 17-05-2022 11:20:00 20.3 C 13.89 g/m*3 20.3 C 0 km/h
Sensor: Nr:Datum:Temp:Abs-Feuchte:Windchill:Wind:
Aussen-T/F 426 17-05-2022 11:25:00 20.4 C 13.8 g/m*3 20.4 C 0 km/h
427 17-05-2022 11:30:00 20.7 C 14.04 g/m*3 20.7 C 0 km/h
428 17-05-2022 11:35:00 20.9 C 14.02 g/m*3 20.9 C 0 km/h
429 17-05-2022 11:40:00 21.2 C 14.08 g/m*3 21.2 C 0 km/h
430 17-05-2022 11:45:00 21.4 C 13.87 g/m*3 21.4 C 0 km/h
431 17-05-2022 11:50:00 21.6 C 14.03 g/m*3 21.6 C 0 km/h
432 17-05-2022 11:55:00 21.7 C 13.93 g/m*3 21.7 C 0 km/h
433 17-05-2022 12:00:00 21.8 C 13.81 g/m*3 21.8 C 0 km/h
434 17-05-2022 12:05:00 21.9 C 13.7 g/m*3 21.9 C 0 km/h
435 17-05-2022 12:10:00 22.1 C 13.86 g/m*3 22.1 C 0 km/h
436 17-05-2022 12:15:00 22.3 C 13.82 g/m*3 22.3 C 0 km/h
437 17-05-2022 12:20:00 22.6 C 13.86 g/m*3 22.6 C 0 km/h
438 17-05-2022 12:25:00 22.9 C 13.69 g/m*3 22.9 C 9.7 km/h
439 17-05-2022 12:30:00 23.2 C 13.72 g/m*3 23.2 C 6.4 km/h
440 17-05-2022 12:35:00 23.4 C 13.46 g/m*3 23.4 C 4.8 km/h
441 17-05-2022 12:40:00 23.6 C 13.4 g/m*3 23.6 C 1.6 km/h
442 17-05-2022 12:45:00 23.8 C 12.69 g/m*3 23.8 C 8.1 km/h
443 17-05-2022 12:50:00 23.8 C 13.12 g/m*3 23.8 C 6.4 km/h
444 17-05-2022 12:55:00 24.1 C 12.91 g/m*3 24.1 C 6.4 km/h
445 17-05-2022 13:00:00 24.1 C 12.69 g/m*3 24.1 C 4.8 km/h
446 17-05-2022 13:05:00 23.9 C 12.11 g/m*3 23.9 C 8.1 km/h
447 17-05-2022 13:10:00 23.9 C 12.11 g/m*3 23.9 C 3.2 km/h
448 17-05-2022 13:15:00 23.9 C 12.11 g/m*3 23.9 C 6.4 km/h
449 17-05-2022 13:20:00 24.1 C 12.47 g/m*3 24.1 C 6.4 km/h
450 17-05-2022 13:25:00 24.3 C 12.61 g/m*3 24.3 C 6.4 km/h
Sensor: Nr:Datum:Temp:Abs-Feuchte:Windchill:Wind:
Aussen-T/F 451 17-05-2022 13:30:00 24.4 C 12.24 g/m*3 24.4 C 6.4 km/h
452 17-05-2022 13:35:00 24.4 C 12.24 g/m*3 24.4 C 6.4 km/h
453 17-05-2022 13:40:00 24.3 C 12.17 g/m*3 24.3 C 6.4 km/h
454 17-05-2022 13:45:00 24.3 C 12.17 g/m*3 24.3 C 6.4 km/h
455 17-05-2022 13:50:00 24.3 C 12.17 g/m*3 24.3 C 6.4 km/h
456 17-05-2022 13:55:00 24.3 C 12.83 g/m*3 24.3 C 9.7 km/h
457 17-05-2022 14:00:00 24.3 C 12.39 g/m*3 24.3 C 4.8 km/h
458 17-05-2022 14:05:00 24.6 C 12.15 g/m*3 24.6 C 6.4 km/h
459 17-05-2022 14:10:00 24.7 C 12.22 g/m*3 24.7 C 8.1 km/h
460 17-05-2022 14:15:00 25.1 C 12.5 g/m*3 25.1 C 3.2 km/h
461 17-05-2022 14:20:00 25.4 C 12.71 g/m*3 25.4 C 3.2 km/h
462 17-05-2022 14:25:00 25.8 C 12.28 g/m*3 25.8 C 8.1 km/h
463 17-05-2022 14:30:00 25.9 C 12.1 g/m*3 25.9 C 9.7 km/h
464 17-05-2022 14:35:00 26.1 C 12.24 g/m*3 26.1 C 4.8 km/h
465 17-05-2022 14:40:00 26.1 C 12 g/m*3 26.1 C 12.9 km/h
466 17-05-2022 14:45:00 25.9 C 12.35 g/m*3 25.9 C 3.2 km/h
467 17-05-2022 14:50:00 25.8 C 12.04 g/m*3 25.8 C 9.7 km/h
468 17-05-2022 14:55:00 25.5 C 12.78 g/m*3 25.5 C 8.1 km/h
469 17-05-2022 15:00:00 25.6 C 12.14 g/m*3 25.6 C 3.2 km/h
470 17-05-2022 15:05:00 25.7 C 11.97 g/m*3 25.7 C 6.4 km/h
471 17-05-2022 15:10:00 25.8 C 12.28 g/m*3 25.8 C 4.8 km/h
472 17-05-2022 15:15:00 25.8 C 11.8 g/m*3 25.8 C 6.4 km/h
473 17-05-2022 15:20:00 25.7 C 11.49 g/m*3 25.7 C 8.1 km/h
474 17-05-2022 15:25:00 25.7 C 11.73 g/m*3 25.7 C 9.7 km/h
475 17-05-2022 15:30:00 25.8 C 11.8 g/m*3 25.8 C 8.1 km/h
Sensor: Nr:Datum:Temp:Abs-Feuchte:Windchill:Wind:
Aussen-T/F 476 17-05-2022 15:35:00 25.7 C 11.49 g/m*3 25.7 C 9.7 km/h
477 17-05-2022 15:40:00 25.8 C 11.8 g/m*3 25.8 C 9.7 km/h
478 17-05-2022 15:45:00 25.8 C 11.56 g/m*3 25.8 C 11.3 km/h
479 17-05-2022 15:50:00 25.9 C 11.86 g/m*3 25.9 C 6.4 km/h
480 17-05-2022 15:55:00 25.9 C 11.62 g/m*3 25.9 C 6.4 km/h
481 17-05-2022 16:00:00 25.9 C 11.38 g/m*3 25.9 C 4.8 km/h
482 17-05-2022 16:05:00 25.9 C 12.1 g/m*3 25.9 C 4.8 km/h
483 17-05-2022 16:10:00 25.8 C 11.32 g/m*3 25.8 C 8.1 km/h
484 17-05-2022 16:15:00 25.6 C 11.43 g/m*3 25.6 C 4.8 km/h
485 17-05-2022 16:20:00 25.6 C 11.43 g/m*3 25.6 C 1.6 km/h
486 17-05-2022 16:25:00 25.8 C 11.8 g/m*3 25.8 C 4.8 km/h
487 17-05-2022 16:30:00 26.4 C 12.2 g/m*3 26.4 C 3.2 km/h
488 17-05-2022 16:35:00 26.9 C 11.52 g/m*3 26.9 C 9.7 km/h
489 17-05-2022 16:40:00 27.1 C 11.39 g/m*3 27.1 C 8.1 km/h
490 17-05-2022 16:45:00 27.4 C 11.84 g/m*3 27.4 C 6.4 km/h
491 17-05-2022 16:50:00 27.8 C 11.83 g/m*3 27.8 C 9.7 km/h
492 17-05-2022 16:55:00 27.8 C 11.57 g/m*3 27.8 C 8.1 km/h
493 17-05-2022 17:00:00 27.9 C 11.63 g/m*3 27.9 C 9.7 km/h
494 17-05-2022 17:05:00 27.9 C 11.36 g/m*3 27.9 C 11.3 km/h
495 17-05-2022 17:10:00 27.8 C 11.57 g/m*3 27.8 C 6.4 km/h
496 17-05-2022 17:15:00 28.1 C 12.03 g/m*3 28.1 C 8.1 km/h
497 17-05-2022 17:20:00 28.2 C 12.1 g/m*3 28.2 C 9.7 km/h
498 17-05-2022 17:25:00 28.4 C 11.95 g/m*3 28.4 C 12.9 km/h
499 17-05-2022 17:30:00 28.1 C 11.48 g/m*3 28.1 C 9.7 km/h
500 17-05-2022 17:35:00 27.9 C 11.9 g/m*3 27.9 C 6.4 km/h
Sensor: Nr:Datum:Temp:Abs-Feuchte:Windchill:Wind:
Aussen-T/F 501 17-05-2022 17:40:00 28.1 C 11.48 g/m*3 28.1 C 8.1 km/h
502 17-05-2022 17:45:00 28.1 C 12.03 g/m*3 28.1 C 6.4 km/h
503 17-05-2022 17:50:00 28.3 C 11.61 g/m*3 28.3 C 8.1 km/h
504 17-05-2022 17:55:00 28.3 C 11.61 g/m*3 28.3 C 6.4 km/h
505 17-05-2022 18:00:00 28.3 C 11.33 g/m*3 28.3 C 9.7 km/h
506 17-05-2022 18:05:00 27.8 C 11.57 g/m*3 27.8 C 11.3 km/h
507 17-05-2022 18:10:00 27.8 C 11.57 g/m*3 27.8 C 11.3 km/h
508 17-05-2022 18:15:00 27.6 C 11.97 g/m*3 27.6 C 12.9 km/h
509 17-05-2022 18:20:00 27.3 C 12.3 g/m*3 27.3 C 11.3 km/h
510 17-05-2022 18:25:00 27.1 C 11.9 g/m*3 27.1 C 9.7 km/h
511 17-05-2022 18:30:00 26.8 C 11.96 g/m*3 26.8 C 11.3 km/h
512 17-05-2022 18:35:00 26.6 C 11.83 g/m*3 26.6 C 12.9 km/h
513 17-05-2022 18:40:00 26.5 C 11.77 g/m*3 26.5 C 8.1 km/h
514 17-05-2022 18:45:00 26.4 C 11.95 g/m*3 26.4 C 12.9 km/h
515 17-05-2022 18:50:00 26.3 C 12.13 g/m*3 26.3 C 11.3 km/h
516 17-05-2022 18:55:00 26.3 C 11.64 g/m*3 26.3 C 11.3 km/h
517 17-05-2022 19:00:00 26.2 C 11.57 g/m*3 26.2 C 12.9 km/h
518 17-05-2022 19:05:00 26.2 C 12.06 g/m*3 26.2 C 8.1 km/h
519 17-05-2022 19:10:00 26.1 C 12.24 g/m*3 26.1 C 12.9 km/h
520 17-05-2022 19:15:00 25.8 C 12.28 g/m*3 25.8 C 6.4 km/h
521 17-05-2022 19:20:00 25.6 C 12.62 g/m*3 25.6 C 6.4 km/h
522 17-05-2022 19:25:00 25.4 C 12.71 g/m*3 25.4 C 3.2 km/h
523 17-05-2022 19:30:00 25.3 C 13.34 g/m*3 25.3 C 0 km/h
524 17-05-2022 19:35:00 25.2 C 13.74 g/m*3 25.2 C 0 km/h
525 17-05-2022 19:40:00 25 C 13.81 g/m*3 25 C 0 km/h
Sensor: Nr:Datum:Temp:Abs-Feuchte:Windchill:Wind:
Aussen-T/F 526 17-05-2022 19:45:00 24.8 C 12.52 g/m*3 24.8 C 4.8 km/h
527 17-05-2022 19:50:00 24.5 C 13.43 g/m*3 24.5 C 0 km/h
528 17-05-2022 19:55:00 24.3 C 13.5 g/m*3 24.3 C 0 km/h
529 17-05-2022 20:00:00 24.1 C 13.78 g/m*3 24.1 C 0 km/h
530 17-05-2022 20:05:00 23.8 C 13.77 g/m*3 23.8 C 0 km/h
531 17-05-2022 20:10:00 23.6 C 13.82 g/m*3 23.6 C 0 km/h
532 17-05-2022 20:15:00 23.3 C 13.8 g/m*3 23.3 C 0 km/h
533 17-05-2022 20:20:00 23.2 C 13.93 g/m*3 23.2 C 0 km/h
534 17-05-2022 20:25:00 22.9 C 13.69 g/m*3 22.9 C 0 km/h
535 17-05-2022 20:30:00 22.7 C 13.54 g/m*3 22.7 C 0 km/h
536 17-05-2022 20:35:00 22.5 C 13.58 g/m*3 22.5 C 0 km/h
537 17-05-2022 20:40:00 22.3 C 13.62 g/m*3 22.3 C 0 km/h
538 17-05-2022 20:45:00 22.1 C 13.47 g/m*3 22.1 C 0 km/h
539 17-05-2022 20:50:00 21.8 C 13.43 g/m*3 21.8 C 0 km/h
540 17-05-2022 20:55:00 21.6 C 13.28 g/m*3 21.6 C 0 km/h
541 17-05-2022 21:00:00 21.4 C 13.31 g/m*3 21.4 C 0 km/h
542 17-05-2022 21:05:00 21.1 C 13.08 g/m*3 21.1 C 0 km/h
543 17-05-2022 21:10:00 20.9 C 12.93 g/m*3 20.9 C 0 km/h
544 17-05-2022 21:15:00 20.7 C 12.96 g/m*3 20.7 C 0 km/h
545 17-05-2022 21:20:00 20.4 C 12.74 g/m*3 20.4 C 0 km/h
546 17-05-2022 21:25:00 20.1 C 12.69 g/m*3 20.1 C 0 km/h
547 17-05-2022 21:30:00 19.9 C 12.71 g/m*3 19.9 C 0 km/h
548 17-05-2022 21:35:00 19.7 C 12.57 g/m*3 19.7 C 0 km/h
549 17-05-2022 21:40:00 19.4 C 12.51 g/m*3 19.4 C 0 km/h
550 17-05-2022 21:45:00 19.3 C 12.44 g/m*3 19.3 C 0 km/h
Sensor: Nr:Datum:Temp:Abs-Feuchte:Windchill:Wind:
Aussen-T/F 551 17-05-2022 21:50:00 19.1 C 12.46 g/m*3 19.1 C 3.2 km/h
552 17-05-2022 21:55:00 18.9 C 12.31 g/m*3 18.9 C 1.6 km/h
553 17-05-2022 22:00:00 18.8 C 12.4 g/m*3 18.8 C 1.6 km/h
554 17-05-2022 22:05:00 18.7 C 12.33 g/m*3 18.7 C 0 km/h
555 17-05-2022 22:10:00 18.5 C 12.18 g/m*3 18.5 C 0 km/h
556 17-05-2022 22:15:00 18.4 C 12.27 g/m*3 18.4 C 0 km/h
557 17-05-2022 22:20:00 18.3 C 12.2 g/m*3 18.3 C 0 km/h
558 17-05-2022 22:25:00 18.1 C 12.21 g/m*3 18.1 C 0 km/h
559 17-05-2022 22:30:00 18 C 12.13 g/m*3 18 C 0 km/h
560 17-05-2022 22:35:00 17.9 C 12.21 g/m*3 17.9 C 0 km/h
561 17-05-2022 22:40:00 17.8 C 12.14 g/m*3 17.8 C 0 km/h
562 17-05-2022 22:45:00 17.8 C 12.29 g/m*3 17.8 C 0 km/h
563 17-05-2022 22:50:00 17.7 C 12.22 g/m*3 17.7 C 0 km/h
564 17-05-2022 22:55:00 17.7 C 12.22 g/m*3 17.7 C 0 km/h
565 17-05-2022 23:00:00 17.6 C 12.15 g/m*3 17.6 C 0 km/h
566 17-05-2022 23:05:00 17.5 C 12.08 g/m*3 17.5 C 0 km/h
567 17-05-2022 23:10:00 17.4 C 12.15 g/m*3 17.4 C 0 km/h
568 17-05-2022 23:15:00 17.3 C 12.08 g/m*3 17.3 C 0 km/h
569 17-05-2022 23:20:00 17.3 C 12.08 g/m*3 17.3 C 0 km/h
570 17-05-2022 23:25:00 17.3 C 12.08 g/m*3 17.3 C 0 km/h
571 17-05-2022 23:30:00 17.2 C 12.01 g/m*3 17.2 C 0 km/h
572 17-05-2022 23:35:00 17.2 C 12.01 g/m*3 17.2 C 0 km/h
573 17-05-2022 23:40:00 17.1 C 11.94 g/m*3 17.1 C 0 km/h
574 17-05-2022 23:45:00 16.9 C 11.79 g/m*3 16.9 C 0 km/h
575 17-05-2022 23:50:00 16.9 C 11.79 g/m*3 16.9 C 0 km/h
Sensor: Nr:Datum:Temp:Abs-Feuchte:Windchill:Wind:
Aussen-T/F 576 17-05-2022 23:55:00 16.8 C 11.72 g/m*3 16.8 C 0 km/h

Legende:
   Min
   Max


Maximal/Minimal-Werte vom 16.05.2022 - 17.05.2022

Sensor Min Max Avg
Temp
(Aussen-T/F)
11.8 °C
16-05-2022  03:15:00
28.4 °C
17-05-2022  17:25:00
18.37 °C
Abs-Feuchte
(Aussen-T/F)
9.11 g/m*3
16-05-2022  03:05:00
15.08 g/m*3
16-05-2022  20:00:00
11.98 g/m*3
Windchill
(Aussen-T/F)
11.8 C
16-05-2022  03:15:00
28.4 C
17-05-2022  17:25:00
18.34 C

Die Daten stammen von einer Davis Vantage Pro 2 Wetter-Station und werden unter Linux mit der Software wview2wettercgi und aufbereitet. Alle Angaben erfolgen ohne Gewähr für ihre Vollständigkeit oder Richtigkeit.
Kontakt: Rainer Krienke krienke@uni-koblenz.de . Meine Webseiten an der Uni Koblenz oder privat.
Version: $Revision: 0.78 $